Regional Weather Roundup
Issued by NWS

Home | Current Version | Previous Version | Text Only | Print | Product List | Glossary On
Versions: 1 2 3 4 5 6 7 8 9 10 11 12 13 14 15 16 17 18 19 20 21 22 23 24 25 26 27 28 29 30 31 32 33 34 35 36 37 38 39 40 41 42 43 44 45 46 47 48 49 50
000
ASUS43 KOAX 310910
RWRNE

WEATHER ROUNDUP FOR NEBRASKA
NATIONAL WEATHER SERVICE OMAHA NE
400 AM CDT THU JUL 31 2014

NOTES: SATELLITE DATA IS BEING USED TO AUGMENT CLOUD COVER ABOVE
       12000 FEET.
       "FAIR" INDICATES FEW OR NO CLOUDS BELOW 12,000 FEET WITH NO
       SIGNIFICANT WEATHER AND/OR OBSTRUCTIONS TO VISIBILITY.

  * THESE STATIONS DO NOT REPORT WEATHER SUCH AS RAIN...SNOW OR FOG.

NEZ001>004-019>022-054>056-311000-
NEBRASKA PANHANDLE

CITY           SKY/WX    TMP DP  RH WIND       PRES   REMARKS
SCOTTSBLUFF    CLOUDY    60  58  92 CALM      30.21S
ALLIANCE       MOCLDY    54  53  97 W7        30.20S
CHADRON        PTCLDY    56  50  80 W5        30.17S
KIMBALL        CLOUDY    57  56  96 W7        30.24F
SIDNEY         MOCLDY    56  54  93 W8        30.23F
$$

NEZ057>060-069>072-079>082-311000-
SOUTHWEST NEBRASKA

CITY           SKY/WX    TMP DP  RH WIND       PRES   REMARKS
NORTH PLATTE   PTCLDY    58  56  93 NW3       30.16S
IMPERIAL       MOCLDY    61  57  87 W7        30.20S
LEXINGTON      PTCLDY    58  55  91 CALM      30.15F
MCCOOK         CLEAR     60  58  92 SW8       30.17F
OGALLALA       MOCLDY    56  55  96 W5        30.19S
$$

NEZ005>010-023>029-035>040-094-311000-
NORTH CENTRAL NEBRASKA

CITY           SKY/WX    TMP DP  RH WIND       PRES   REMARKS
VALENTINE      PTCLDY    58  51  78 SW5       30.08F
AINSWORTH      PTCLDY    63  56  78 SW7       30.08F
BROKEN BOW     MOCLDY    56  54  93 CALM      30.13F
O`NEILL        PTCLDY    62  59  89 S7        30.10F
ORD            MOCLDY    62  57  83 S5        30.11F
THEDFORD       PTCLDY    66  59  78 SW10      30.14S
$$

NEZ041-046>049-061>064-073>077-083>087-311000-
SOUTH CENTRAL NEBRASKA

CITY           SKY/WX    TMP DP  RH WIND       PRES   REMARKS
GRAND ISLAND   PTCLDY    61  55  81 S3        30.14S
AURORA         CLEAR     57  56  96 SW3       30.13F
HASTINGS       PTCLDY    60  53  77 SW5       30.14S
HEBRON         PTCLDY    54  50  87 CALM      30.13F
HOLDREGE       PTCLDY    61  53  76 SW6       30.16S
KEARNEY *      PTCLDY    63  54  72 S8        30.15S
YORK           CLEAR     57  55  94 W5        30.13F
$$

NEZ011>018-030>034-042>045-311000-
NORTHEAST NEBRASKA

CITY           SKY/WX    TMP DP  RH WIND       PRES   REMARKS
NORFOLK        PTCLDY    58  54  86 CALM      30.10F
ALBION         PTCLDY    62  55  77 CALM      30.12S
BLAIR          CLEAR     61  53  76 SW3       30.11S
COLUMBUS *       N/A     55  52  88 CALM      30.12S VSB 3/4
FREMONT        CLEAR     60  56  88 CALM      30.12S
TEKAMAH        CLEAR     54  51  90 S3        30.10S
WAYNE          CLEAR     54  52  94 S3        30.11S
$$

NEZ050>053-065>068-078-088>093-311000-
SOUTHEAST NEBRASKA

CITY           SKY/WX    TMP DP  RH WIND       PRES   REMARKS
LINCOLN        CLEAR     54  51  90 CALM      30.12F
OMAHA EPPLEY   MOCLDY    60  57  89 CALM      30.11S
BEATRICE       CLEAR     56  54  95 CALM      30.12S
FALLS CITY     CLEAR     57  54  89 NW3       30.11R
NEBRASKA CITY  CLEAR     61  55  79 SW6       30.11S
PLATTSMOUTH    PTCLDY    63  53  71 CALM      30.11S
$$

NEZ044-045-051>053-067-311000-
OMAHA AREA

CITY           SKY/WX    TMP DP  RH WIND       PRES   REMARKS
OMAHA EPPLEY   MOCLDY    60  57  89 CALM      30.11S
BLAIR          CLEAR     61  53  76 SW3       30.11S
FREMONT        CLEAR     60  56  88 CALM      30.12S
MILLARD        PTCLDY    59  57  94 CALM      30.11S
OFFUTT AFB     PTCLDY    57  57  99 CALM      30.10S
PLATTSMOUTH    PTCLDY    63  53  71 CALM      30.11S
WAHOO          FAIR      57  54  89 CALM      30.11S
$$



USA.gov is the U.S. government's official web portal to all federal, state and local government web resources and services.